Weather History for Waco, TX

Change the Weather History Date:

Monday, October 22, 2012

  Actual Average Record
Temperature  
Mean Temperature 80 °F 66 °F  
Max Temperature 88 °F 78 °F 94 °F (1999)
Min Temperature 72 °F 55 °F 38 °F (1911)
Degree Days  
Heating Degree Days 0 3  
Month to date heating degree days 42 31  
Since 1 July heating degree days 42 37  
Cooling Degree Days 15 4  
Month to date cooling degree days 141 130  
Year to date cooling degree days 3139 2724  
Growing Degree Days 30 (Base 50)    
Moisture  
Dew Point 69 °F    
Average Humidity 70    
Maximum Humidity 87    
Minimum Humidity 53    
Precipitation  
Precipitation 0.00 in 0.13 in 3.60 in (2004)
Month to date precipitation 0.06 2.84  
Year to date precipitation 31.53 28.06  
Snow  
Snow 0.00 in 0.00 in 0.00 in ()
Month to date snowfall 0.0 0.0  
Since 1 July snowfall 0.0 0.0  
Since 1 September snowfall 0.0 0.0  
Snow Depth 0.00 in    
Sea Level Pressure  
Sea Level Pressure 29.93 in    
Wind  
Wind Speed 12 mph (SSE)    
Max Wind Speed 21 mph    
Max Gust Speed 25 mph    
Visibility 10 miles    
Events      
T = Trace of Precipitation, MM = Missing Value Source: NWS Daily Summary

Daily Weather History Graph

Daily Weather History Graph

Search for Another Location

Airport:

Trip Planner

Search our weather history database for the weather conditions in past years. The results will help you decide how hot, cold, wet, or windy it might be!

Date:

Astronomy

Oct. 22, 2012 Rise Set
Actual Time 7:37 AM CDT 6:48 PM CDT
Civil Twilight 7:12 AM CDT 7:13 PM CDT
Nautical Twilight 6:44 AM CDT 7:41 PM CDT
Astronomical Twilight 6:16 AM CDT 8:09 PM CDT
Moon 2:34 PM CDT (10/22) 12:51 AM CDT (10/22)
Length of Visible Light 12h 00m
Length of Day
11h 11m
First Quarter, 56% of the Moon is Illuminated
Oct 22
First Quarter
Oct 29
Full
Nov 6
Last Quarter
Nov 13
New
Nov 20
First Quarter

Hourly Weather History & Observations

Time (CDT) Temp. Heat Index Dew Point Humidity Pressure Visibility Wind Dir Wind Speed Gust Speed Precip Events Conditions
12:36 AM 75.2 °F - 69.8 °F 83% 29.92 in 10.0 mi South 20.7 mph 26.5 mph N/A   Mostly Cloudy
12:51 AM 73.9 °F - 69.1 °F 85% 29.90 in 10.0 mi South 15.0 mph - N/A   Mostly Cloudy
1:00 AM 73.4 °F - 69.8 °F 88% 29.92 in 10.0 mi South 16.1 mph 24.2 mph N/A   Partly Cloudy
1:25 AM 73.4 °F - 69.8 °F 88% 29.92 in 10.0 mi South 17.3 mph - N/A   Mostly Cloudy
2:51 AM 73.9 °F - 69.1 °F 85% 29.90 in 10.0 mi South 15.0 mph - N/A   Overcast
3:35 AM 73.4 °F - 69.8 °F 88% 29.92 in 10.0 mi South 16.1 mph - N/A   Overcast
3:51 AM 73.0 °F - 69.1 °F 87% 29.90 in 9.0 mi South 13.8 mph - N/A   Overcast
4:51 AM 73.4 °F - 69.8 °F 88% 29.92 in 9.0 mi South 9.2 mph - N/A   Overcast
5:15 AM 73.4 °F - 69.8 °F 88% 29.93 in 9.0 mi South 11.5 mph - N/A   Overcast
5:51 AM 73.4 °F - 69.8 °F 88% 29.94 in 9.0 mi SSE 10.4 mph - N/A   Overcast
6:51 AM 73.4 °F - 69.8 °F 88% 29.95 in 8.0 mi SSE 10.4 mph - N/A   Overcast
7:51 AM 73.4 °F - 69.8 °F 88% 29.95 in 9.0 mi SSE 12.7 mph - N/A   Overcast
8:51 AM 75.0 °F - 70.0 °F 84% 29.95 in 8.0 mi SE 11.5 mph - N/A   Overcast
9:51 AM 75.2 °F - 71.6 °F 89% 30.00 in 8.0 mi SSE 9.2 mph - N/A   Overcast
10:51 AM 78.1 °F - 71.1 °F 79% 30.00 in 9.0 mi SSE 8.1 mph - N/A   Mostly Cloudy
11:17 AM 80.6 °F 84.6 °F 71.6 °F 74% 30.01 in 10.0 mi SSE 8.1 mph - N/A   Scattered Clouds
11:51 AM 82.0 °F 86.3 °F 71.1 °F 69% 29.99 in 10.0 mi SSE 10.4 mph - N/A   Mostly Cloudy
12:51 PM 87.1 °F 92.0 °F 70.0 °F 57% 29.95 in 10.0 mi SSE 12.7 mph - N/A   Scattered Clouds
1:51 PM 88.0 °F 91.4 °F 68.0 °F 51% 29.94 in 10.0 mi SSE 8.1 mph - N/A   Mostly Cloudy
2:51 PM 84.0 °F 87.8 °F 69.1 °F 61% 29.91 in 10.0 mi SSE 18.4 mph - N/A   Clear
3:51 PM 82.9 °F 86.5 °F 69.1 °F 63% 29.91 in 10.0 mi SSE 13.8 mph - N/A   Scattered Clouds
4:51 PM 82.4 °F 86.3 °F 69.8 °F 66% 29.93 in 10.0 mi SSE 19.6 mph 24.2 mph N/A   Clear
5:51 PM 81.0 °F 83.8 °F 68.0 °F 65% 29.90 in 10.0 mi SE 16.1 mph 20.7 mph N/A   Clear
6:51 PM 78.1 °F - 68.0 °F 71% 29.91 in 10.0 mi South 9.2 mph - N/A   Clear
7:51 PM 75.9 °F - 68.0 °F 76% 29.91 in 10.0 mi SSE 10.4 mph - N/A   Clear
8:51 PM 73.9 °F - 69.1 °F 85% 29.91 in 10.0 mi SSE 5.8 mph - N/A   Clear
9:51 PM 73.4 °F - 69.8 °F 88% 29.93 in 10.0 mi South 11.5 mph - N/A   Clear
11:51 PM 73.9 °F - 64.9 °F 73% 29.93 in 10.0 mi South 15.0 mph 25.3 mph N/A   Clear